| time (UTC) | temp C | wind direction | speed KPH | gust KPH | rain 1hr cm | rain 24hr cm | rain mn cm | humidity % | barometer mb |
| 20260504175331 | 21 | 204 | 16.1 | 38.6 | 0.00 | 0.00 | 0.00 | 32 | 1011.8 |
| 20260504174832 | 21 | 215 | 14.5 | 38.6 | 0.00 | 0.00 | 0.00 | 33 | 1011.8 |
| 20260504174331 | 21 | 197 | 12.9 | 40.2 | 0.00 | 0.00 | 0.00 | 33 | 1011.8 |
| 20260504174104 | 21 | 171 | 16.1 | 40.2 | 0.00 | 0.00 | 0.00 | 34 | 1011.9 |
| 20260504173329 | 21 | 214 | 16.1 | 35.4 | 0.00 | 0.00 | 0.00 | 32 | 1012.0 |
| 20260504172830 | 21 | 150 | 12.9 | 30.6 | 0.00 | 0.00 | 0.00 | 33 | 1011.9 |
| 20260504172600 | 21 | 244 | 12.9 | 38.6 | 0.00 | 0.00 | 0.00 | 33 | 1012.2 |
| 20260504171829 | 21 | 180 | 12.9 | 38.6 | 0.00 | 0.00 | 0.00 | 35 | 1012.2 |
| 20260504171329 | 21 | 234 | 11.3 | 29.0 | 0.00 | 0.00 | 0.00 | 34 | 1012.3 |
| 20260504170829 | 21 | 244 | 14.5 | 32.2 | 0.00 | 0.00 | 0.00 | 34 | 1012.4 |
| 20260504170328 | 21 | 209 | 12.9 | 32.2 | 0.00 | 0.00 | 0.00 | 33 | 1012.6 |
| 20260504160321 | 20 | 244 | 16.1 | 30.6 | 0.00 | 0.00 | 0.00 | 38 | 1013.1 |
| 20260504150809 | 18 | 201 | 12.9 | 25.7 | 0.00 | 0.00 | 0.00 | 44 | 1013.6 |
| 20260504150302 | 17 | 146 | 14.5 | 27.4 | 0.00 | 0.00 | 0.00 | 46 | 1013.7 |
| 20260504141232 | 16 | 198 | 16.1 | 30.6 | 0.00 | 0.00 | 0.00 | 55 | 1013.9 |
| 20260504140731 | 16 | 206 | 16.1 | 30.6 | 0.00 | 0.00 | 0.00 | 55 | 1013.9 |
| 20260504140501 | 16 | 199 | 14.5 | 29.0 | 0.00 | 0.00 | 0.00 | 56 | 1013.9 |
| 20260504130719 | 14 | 206 | 17.7 | 30.6 | 0.00 | 0.00 | 0.00 | 62 | 1014.3 |
| 20260504130213 | 14 | 181 | 16.1 | 30.6 | 0.00 | 0.00 | 0.00 | 62 | 1014.4 |
| 20260504110455 | 11 | 219 | 9.7 | 17.7 | 0.00 | 0.00 | 0.00 | 75 | 1015.0 |
| 20260504100343 | 10 | 224 | 11.3 | 17.7 | 0.00 | 0.00 | 0.00 | 72 | 1015.1 |
| 20260504081648 | 9 | 231 | 4.8 | 9.7 | 0.00 | 0.00 | 0.00 | 64 | 1014.8 |
| 20260504081146 | 9 | 231 | 4.8 | 9.7 | 0.00 | 0.00 | 0.00 | 65 | 1014.8 |
| 20260504080644 | 9 | 254 | 4.8 | 8.0 | 0.00 | 0.00 | 0.00 | 65 | 1014.8 |
| 20260504080144 | 9 | 254 | 4.8 | 8.0 | 0.00 | 0.00 | 0.00 | 65 | 1014.8 |
| 20260504070139 | 9 | 254 | 1.6 | 3.2 | 0.00 | 0.00 | 0.00 | 60 | 1014.6 |
| 20260504050516 | 11 | 219 | 6.4 | 12.9 | 0.00 | 0.00 | 0.00 | 44 | 1014.5 |
| 20260504050244 | 11 | 225 | 6.4 | 12.9 | 0.00 | 0.00 | 0.00 | 44 | 1014.5 |
| 20260504045514 | 11 | 229 | 6.4 | 16.1 | 0.00 | 0.00 | 0.00 | 44 | 1014.5 |
| 20260504045014 | 12 | 219 | 6.4 | 16.1 | 0.00 | 0.00 | 0.00 | 44 | 1014.4 |
| 20260504044511 | 12 | 226 | 6.4 | 14.5 | 0.00 | 0.00 | 0.00 | 44 | 1014.4 |
| 20260504044013 | 12 | 248 | 6.4 | 12.9 | 0.00 | 0.00 | 0.00 | 43 | 1014.4 |
| 20260504043513 | 12 | 225 | 6.4 | 11.3 | 0.00 | 0.00 | 0.00 | 44 | 1014.4 |
| 20260504043013 | 12 | 212 | 6.4 | 11.3 | 0.00 | 0.00 | 0.00 | 43 | 1014.3 |
| 20260504042512 | 12 | 218 | 6.4 | 14.5 | 0.00 | 0.00 | 0.00 | 43 | 1014.2 |
| 20260504042012 | 12 | 216 | 6.4 | 14.5 | 0.00 | 0.00 | 0.00 | 43 | 1014.1 |
| 20260504041512 | 12 | 236 | 6.4 | 14.5 | 0.00 | 0.00 | 0.00 | 43 | 1014.0 |
| 20260504041012 | 12 | 233 | 6.4 | 16.1 | 0.00 | 0.00 | 0.00 | 42 | 1013.9 |
| 20260504040512 | 12 | 232 | 8.0 | 16.1 | 0.00 | 0.00 | 0.00 | 42 | 1013.9 |
| 20260504040012 | 12 | 227 | 8.0 | 16.1 | 0.00 | 0.00 | 0.00 | 42 | 1013.9 |
| 20260504035511 | 12 | 268 | 8.0 | 16.1 | 0.00 | 0.00 | 0.00 | 42 | 1013.9 |
| 20260504035011 | 12 | 248 | 6.4 | 14.5 | 0.00 | 0.00 | 0.00 | 42 | 1013.8 |
| 20260504034511 | 12 | 224 | 6.4 | 12.9 | 0.00 | 0.00 | 0.00 | 42 | 1013.9 |
| 20260504034012 | 12 | 238 | 8.0 | 17.7 | 0.00 | 0.00 | 0.00 | 41 | 1013.7 |
| 20260504033511 | 12 | 236 | 8.0 | 17.7 | 0.00 | 0.00 | 0.00 | 41 | 1013.7 |
| 20260504033011 | 12 | 226 | 8.0 | 14.5 | 0.00 | 0.00 | 0.00 | 41 | 1013.7 |
| 20260504032512 | 12 | 215 | 6.4 | 14.5 | 0.00 | 0.00 | 0.00 | 41 | 1013.7 |
| 20260504032012 | 12 | 236 | 8.0 | 14.5 | 0.00 | 0.00 | 0.00 | 41 | 1013.7 |
| 20260504031744 | 12 | 223 | 8.0 | 14.5 | 0.00 | 0.00 | 0.00 | 41 | 1013.7 |
| 20260504031013 | 12 | 247 | 6.4 | 14.5 | 0.00 | 0.00 | 0.00 | 41 | 1013.7 |
| 20260504030512 | 13 | 253 | 8.0 | 16.1 | 0.00 | 0.00 | 0.00 | 40 | 1013.6 |
| 20260504030013 | 13 | 246 | 8.0 | 16.1 | 0.00 | 0.00 | 0.00 | 40 | 1013.7 |
| 20260504025512 | 13 | 236 | 6.4 | 14.5 | 0.00 | 0.00 | 0.00 | 40 | 1013.7 |
| 20260504025243 | 13 | 242 | 8.0 | 14.5 | 0.00 | 0.00 | 0.00 | 40 | 1013.8 |
| 20260504024506 | 13 | 241 | 8.0 | 14.5 | 0.00 | 0.00 | 0.00 | 40 | 1013.8 |
| 20260504024007 | 13 | 248 | 6.4 | 14.5 | 0.00 | 0.00 | 0.00 | 40 | 1013.8 |
| 20260504023507 | 13 | 227 | 6.4 | 14.5 | 0.00 | 0.00 | 0.00 | 40 | 1013.7 |
| 20260504023006 | 13 | 246 | 6.4 | 14.5 | 0.00 | 0.00 | 0.00 | 40 | 1013.6 |
| 20260504022506 | 13 | 249 | 8.0 | 14.5 | 0.00 | 0.00 | 0.00 | 39 | 1013.8 |
| 20260504022007 | 13 | 225 | 8.0 | 14.5 | 0.00 | 0.00 | 0.00 | 39 | 1013.8 |
| 20260504021504 | 13 | 198 | 6.4 | 17.7 | 0.00 | 0.00 | 0.00 | 39 | 1013.8 |
| 20260504021234 | 13 | 223 | 6.4 | 17.7 | 0.00 | 0.00 | 0.00 | 39 | 1013.7 |
| 20260504020504 | 13 | 227 | 6.4 | 11.3 | 0.00 | 0.00 | 0.00 | 39 | 1013.7 |
| 20260504020005 | 13 | 217 | 6.4 | 11.3 | 0.00 | 0.00 | 0.00 | 39 | 1013.7 |
| 20260504015503 | 13 | 213 | 6.4 | 12.9 | 0.00 | 0.00 | 0.00 | 39 | 1013.7 |
| 20260504015002 | 13 | 227 | 6.4 | 12.9 | 0.00 | 0.00 | 0.00 | 39 | 1013.7 |
| 20260504014459 | 13 | 229 | 4.8 | 12.9 | 0.00 | 0.00 | 0.00 | 39 | 1013.6 |
| 20260504014000 | 13 | 231 | 4.8 | 11.3 | 0.00 | 0.00 | 0.00 | 38 | 1013.7 |
| 20260504013459 | 13 | 225 | 4.8 | 11.3 | 0.00 | 0.00 | 0.00 | 38 | 1013.6 |
| 20260504012959 | 13 | 223 | 4.8 | 11.3 | 0.00 | 0.00 | 0.00 | 38 | 1013.6 |
| 20260504012500 | 13 | 238 | 4.8 | 11.3 | 0.00 | 0.00 | 0.00 | 38 | 1013.5 |
| 20260504011958 | 13 | 236 | 4.8 | 11.3 | 0.00 | 0.00 | 0.00 | 38 | 1013.4 |
| 20260504011459 | 13 | 232 | 4.8 | 11.3 | 0.00 | 0.00 | 0.00 | 37 | 1013.4 |
| 20260504010951 | 13 | 221 | 4.8 | 12.9 | 0.00 | 0.00 | 0.00 | 37 | 1013.3 |
| 20260504010446 | 13 | 248 | 4.8 | 14.5 | 0.00 | 0.00 | 0.00 | 37 | 1013.3 |
| 20260504010210 | 13 | 244 | 4.8 | 14.5 | 0.00 | 0.00 | 0.00 | 36 | 1013.2 |
| 20260504005434 | 14 | 250 | 4.8 | 12.9 | 0.00 | 0.00 | 0.00 | 36 | 1013.2 |
| 20260504004927 | 14 | 194 | 4.8 | 12.9 | 0.00 | 0.00 | 0.00 | 36 | 1013.1 |
| 20260504004421 | 14 | 232 | 4.8 | 12.9 | 0.00 | 0.00 | 0.00 | 36 | 1013.0 |
| 20260504003916 | 14 | 223 | 4.8 | 12.9 | 0.00 | 0.00 | 0.00 | 36 | 1013.0 |
| 20260504003410 | 14 | 248 | 6.4 | 11.3 | 0.00 | 0.00 | 0.00 | 35 | 1012.8 |
| 20260504003134 | 14 | 250 | 6.4 | 12.9 | 0.00 | 0.00 | 0.00 | 35 | 1012.9 |
| 20260504002357 | 14 | 249 | 4.8 | 16.1 | 0.00 | 0.00 | 0.00 | 34 | 1012.8 |
| 20260504001852 | 14 | 252 | 4.8 | 16.1 | 0.00 | 0.00 | 0.00 | 35 | 1012.8 |
| 20260504001345 | 15 | 252 | 8.0 | 16.1 | 0.00 | 0.00 | 0.00 | 34 | 1012.7 |
| 20260504000839 | 15 | 244 | 9.7 | 16.1 | 0.00 | 0.00 | 0.00 | 34 | 1012.7 |
| 20260504000334 | 15 | 269 | 9.7 | 16.1 | 0.00 | 0.00 | 0.00 | 33 | 1012.7 |
| 20260503235827 | 15 | 269 | 9.7 | 17.7 | 0.00 | 0.00 | 0.00 | 33 | 1012.6 |
| 20260503235321 | 15 | 243 | 9.7 | 17.7 | 0.00 | 0.00 | 0.00 | 32 | 1012.6 |
| 20260503235046 | 15 | 250 | 9.7 | 20.9 | 0.00 | 0.00 | 0.00 | 32 | 1012.6 |
| 20260503234309 | 15 | 236 | 11.3 | 20.9 | 0.00 | 0.00 | 0.00 | 32 | 1012.5 |
| 20260503233803 | 15 | 263 | 11.3 | 20.9 | 0.00 | 0.00 | 0.00 | 32 | 1012.5 |
| 20260503233258 | 15 | 281 | 11.3 | 22.5 | 0.00 | 0.00 | 0.00 | 32 | 1012.3 |
| 20260503232751 | 15 | 282 | 11.3 | 25.7 | 0.00 | 0.00 | 0.00 | 31 | 1012.3 |
| 20260503232246 | 15 | 263 | 12.9 | 27.4 | 0.00 | 0.00 | 0.00 | 31 | 1012.2 |
| 20260503231739 | 15 | 290 | 12.9 | 27.4 | 0.00 | 0.00 | 0.00 | 31 | 1012.3 |
| 20260503231505 | 15 | 268 | 11.3 | 22.5 | 0.00 | 0.00 | 0.00 | 31 | 1012.3 |
| 20260503230730 | 15 | 243 | 14.5 | 24.1 | 0.00 | 0.00 | 0.00 | 30 | 1012.2 |
| 20260503230723 | 16 | 271 | 16.1 | 30.6 | 0.00 | 0.00 | 0.00 | 30 | 1012.2 |
| 20260503225715 | 16 | 284 | 14.5 | 30.6 | 0.00 | 0.00 | 0.00 | 30 | 1012.2 |
| 20260503225210 | 16 | 290 | 14.5 | 29.0 | 0.00 | 0.00 | 0.00 | 30 | 1012.2 |
| 20260503224703 | 16 | 281 | 14.5 | 29.0 | 0.00 | 0.00 | 0.00 | 29 | 1012.2 |
| 20260503224158 | 16 | 271 | 14.5 | 27.4 | 0.00 | 0.00 | 0.00 | 29 | 1012.1 |
| 20260503223651 | 16 | 231 | 16.1 | 33.8 | 0.00 | 0.00 | 0.00 | 29 | 1012.2 |
| 20260503223146 | 16 | 254 | 14.5 | 33.8 | 0.00 | 0.00 | 0.00 | 29 | 1012.2 |
| 20260503222639 | 16 | 277 | 12.9 | 29.0 | 0.00 | 0.00 | 0.00 | 29 | 1012.0 |
| 20260503222134 | 16 | 273 | 14.5 | 29.0 | 0.00 | 0.00 | 0.00 | 29 | 1012.2 |
| 20260503221628 | 16 | 272 | 16.1 | 30.6 | 0.00 | 0.00 | 0.00 | 29 | 1012.2 |
| 20260503221122 | 16 | 319 | 17.7 | 40.2 | 0.00 | 0.00 | 0.00 | 29 | 1012.1 |
| 20260503220615 | 16 | 278 | 14.5 | 40.2 | 0.00 | 0.00 | 0.00 | 29 | 1012.1 |
| 20260503220110 | 16 | 322 | 11.3 | 27.4 | 0.00 | 0.00 | 0.00 | 30 | 1012.1 |
| 20260503215603 | 16 | 267 | 14.5 | 27.4 | 0.00 | 0.00 | 0.00 | 30 | 1012.2 |
| 20260503215058 | 16 | 273 | 14.5 | 27.4 | 0.00 | 0.00 | 0.00 | 29 | 1012.2 |
| 20260503214551 | 16 | 273 | 12.9 | 27.4 | 0.00 | 0.00 | 0.00 | 31 | 1012.2 |
| 20260503214045 | 16 | 261 | 11.3 | 27.4 | 0.00 | 0.00 | 0.00 | 30 | 1012.1 |
| 20260503213540 | 16 | 304 | 12.9 | 27.4 | 0.00 | 0.00 | 0.00 | 30 | 1012.1 |
| 20260503213034 | 16 | 265 | 14.5 | 27.4 | 0.00 | 0.00 | 0.00 | 29 | 1012.1 |
| 20260503212527 | 16 | 296 | 16.1 | 29.0 | 0.00 | 0.00 | 0.00 | 30 | 1012.2 |
| 20260503212022 | 16 | 244 | 16.1 | 29.0 | 0.00 | 0.00 | 0.00 | 29 | 1012.1 |
| 20260503211515 | 16 | 290 | 14.5 | 32.2 | 0.00 | 0.00 | 0.00 | 29 | 1012.1 |
| 20260503211010 | 16 | 303 | 14.5 | 37.0 | 0.00 | 0.00 | 0.00 | 29 | 1012.2 |
| 20260503210503 | 16 | 308 | 16.1 | 37.0 | 0.00 | 0.00 | 0.00 | 31 | 1012.3 |
| 20260503205957 | 16 | 306 | 20.9 | 37.0 | 0.00 | 0.00 | 0.00 | 29 | 1012.3 |
| 20260503205452 | 16 | 265 | 20.9 | 45.1 | 0.00 | 0.00 | 0.00 | 29 | 1012.1 |
| 20260503204945 | 16 | 269 | 17.7 | 45.1 | 0.00 | 0.00 | 0.00 | 29 | 1012.2 |
| 20260503204439 | 16 | 269 | 14.5 | 29.0 | 0.00 | 0.00 | 0.00 | 30 | 1012.3 |
| 20260503203935 | 16 | 273 | 12.9 | 29.0 | 0.00 | 0.00 | 0.00 | 30 | 1012.5 |
| 20260503203928 | 16 | 267 | 14.5 | 32.2 | 0.00 | 0.00 | 0.00 | 30 | 1012.5 |
| 20260503202920 | 16 | 284 | 19.3 | 48.3 | 0.00 | 0.00 | 0.00 | 31 | 1012.4 |
| 20260503202414 | 16 | 289 | 20.9 | 48.3 | 0.00 | 0.00 | 0.00 | 30 | 1012.4 |
| 20260503201913 | 15 | 275 | 17.7 | 38.6 | 0.00 | 0.00 | 0.00 | 31 | 1012.4 |
| 20260503201643 | 15 | 298 | 16.1 | 38.6 | 0.00 | 0.00 | 0.00 | 32 | 1012.4 |
| 20260503201144 | 15 | 326 | 17.7 | 38.6 | 0.00 | 0.00 | 0.00 | 31 | 1012.5 |
| 20260503200411 | 15 | 304 | 17.7 | 38.6 | 0.00 | 0.00 | 0.00 | 31 | 1012.4 |
| 20260503195912 | 15 | 268 | 19.3 | 38.6 | 0.00 | 0.00 | 0.00 | 30 | 1012.4 |
| 20260503195412 | 16 | 267 | 19.3 | 43.5 | 0.00 | 0.00 | 0.00 | 30 | 1012.5 |
| 20260503194912 | 15 | 275 | 20.9 | 43.5 | 0.00 | 0.00 | 0.00 | 31 | 1012.5 |
| 20260503194643 | 15 | 279 | 17.7 | 32.2 | 0.00 | 0.00 | 0.00 | 31 | 1012.5 |
| 20260503193911 | 15 | 298 | 17.7 | 32.2 | 0.00 | 0.00 | 0.00 | 33 | 1012.7 |
| 20260503193411 | 15 | 329 | 20.9 | 43.5 | 0.00 | 0.00 | 0.00 | 33 | 1012.7 |
| 20260503193144 | 15 | 324 | 20.9 | 43.5 | 0.00 | 0.00 | 0.00 | 31 | 1012.7 |
| 20260503192410 | 15 | 323 | 20.9 | 43.5 | 0.00 | 0.00 | 0.00 | 31 | 1012.8 |
| 20260503192142 | 15 | 335 | 20.9 | 43.5 | 0.00 | 0.00 | 0.00 | 31 | 1012.9 |
| 20260503191411 | 15 | 292 | 16.1 | 35.4 | 0.00 | 0.00 | 0.00 | 32 | 1012.9 |
| 20260503190909 | 15 | 281 | 14.5 | 35.4 | 0.00 | 0.00 | 0.00 | 34 | 1012.7 |
| 20260503190409 | 15 | 271 | 16.1 | 30.6 | 0.00 | 0.00 | 0.00 | 32 | 1012.9 |
| 20260503185909 | 15 | 284 | 16.1 | 43.5 | 0.00 | 0.00 | 0.00 | 33 | 1012.9 |
| 20260503185409 | 15 | 277 | 16.1 | 43.5 | 0.00 | 0.00 | 0.00 | 34 | 1013.0 |
| 20260503185139 | 15 | 296 | 20.9 | 43.5 | 0.00 | 0.00 | 0.00 | 30 | 1013.1 |
| 20260503184640 | 15 | 314 | 24.1 | 43.5 | 0.00 | 0.00 | 0.00 | 33 | 1013.1 |
| 20260503183908 | 15 | 301 | 19.3 | 37.0 | 0.00 | 0.00 | 0.00 | 31 | 1013.2 |
| 20260503183408 | 15 | 294 | 17.7 | 32.2 | 0.00 | 0.00 | 0.00 | 34 | 1013.2 |
| 20260503182909 | 15 | 296 | 17.7 | 30.6 | 0.00 | 0.00 | 0.00 | 32 | 1013.2 |
| 20260503182406 | 15 | 327 | 16.1 | 27.4 | 0.00 | 0.00 | 0.00 | 33 | 1013.1 |
| 20260503181905 | 15 | 328 | 14.5 | 27.4 | 0.00 | 0.00 | 0.00 | 34 | 1013.3 |
| 20260503181406 | 15 | 340 | 12.9 | 27.4 | 0.00 | 0.00 | 0.00 | 35 | 1013.1 |
| 20260503180905 | 14 | 307 | 16.1 | 33.8 | 0.00 | 0.00 | 0.00 | 33 | 1013.2 |
| 20260503180405 | 14 | 275 | 17.7 | 33.8 | 0.00 | 0.00 | 0.00 | 32 | 1013.1 |
| 20260503175904 | 14 | 296 | 17.7 | 35.4 | 0.00 | 0.00 | 0.00 | 34 | 1013.3 |